Hourly Weather Roundup
Issued by NWS Central Illinois

Home | Current Version | Previous Version | Text Only | Print | Product List | Glossary On
Versions: 1 2 3 4 5 6 7 8 9 10 11 12 13 14 15 16 17 18 19 20 21 22 23 24 25 26 27 28 29 30 31 32 33 34 35 36 37 38 39 40 41 42 43 44 45 46 47 48 49 50
000
NZUS43 KILX 301410
HWRILX

Area Weather Roundup
National Weather Service Lincoln IL
900 AM CDT THU MAR 30 2017

NOTE:  "FAIR" indicates few or no clouds below 12,000 feet, with
       no sigificant weather and/or obstructions to visibility.


CITY           SKY/WX    TMP DP  RH WIND       PRES   REMARKS
Bloomington    CLOUDY    48  46  93 E18       29.64F
Champaign      LGT RAIN  52  49  89 E15       29.66F FOG
Danville       LGT RAIN  49  48  98 E10G16    29.68S
Decatur        LGT RAIN  54  52  93 SE14      29.60F FOG
Effingham      CLOUDY    59  58  96 E9        29.63F
Flora          CLOUDY    61  58  91 SE6       29.63F
Galesburg      CLOUDY    46  45  99 NE15      29.58F
Jacksonville   CLOUDY    55  54  98 E7        29.56F
Lacon          CLOUDY    46  45  97 E8        29.65R
Lawrenceville  CLOUDY    63  58  83 S8        29.65F
Litchfield     TSTM      60  59  97 S20G26    29.57F
$$


CITY           SKY/WX    TMP DP  RH WIND       PRES   REMARKS
Lincoln        CLOUDY    53  52  98 E15       29.58F THUNDER
Macomb         CLOUDY    47  47 100 E13       29.61F FOG
Mattoon        CLOUDY    56  55  97 SE10      29.64F
Mt Carmel AP   CLOUDY    63  57  81 SE8       29.65F
Olney-Noble AP PTSUNNY   61  61 100 SE9       29.64F
Paris AP       CLOUDY    54  52  95 E7        29.70F
Peoria         LGT RAIN  47  46  97 E15       29.60F FOG
Pontiac        CLOUDY    46  45  99 E21G26    29.68F
Rantoul        CLOUDY    50  49  97 E17       29.68F FOG
Robinson       CLOUDY    57  53  88 SE8       29.67F
Springfield    TSTM      56  55  97 SE12      29.59R VSB 1
Taylorville    NOT AVBL
$$

...REGIONAL REPORTS...


CITY           SKY/WX    TMP DP  RH WIND       PRES   REMARKS
Chicago O`Hare LGT RAIN  42  39  89 E15G24    29.77F WCI  34
Kankakee       CLOUDY    45  43  93 E20       29.72F
Moline         LGT RAIN  45  42  89 NE16      29.65F FOG
Mount Sterling CLOUDY    50  50  99 E8        29.58R FOG
Mount Vernon   CLOUDY    64  59  83 S9        29.62F
Pittsfield     TSTM      55  55  99 NE3       29.57F VSB 3/4
Quincy         FOG       52  52 100 E9        29.56F VSB 1/4
Rockford       LGT RAIN  42  39  89 E10       29.77R
$$


CITY           SKY/WX    TMP DP  RH WIND       PRES   REMARKS
Burlington     CLOUDY    47  47 100 NE6       29.61S
Cedar Rapids   CLOUDY    42  42 100 E13G29    29.67F
Des Moines     DRIZZLE   43  41  93 NE13      29.69S FOG
Kirksville     FOG       49  49 100 NE7       29.57F VSB 1/4
Ottumwa        CLOUDY    45  44  97 NE13      29.63R FOG
St Louis       CLOUDY    63  58  83 S8        29.58S
$$


CITY           SKY/WX    TMP DP  RH WIND       PRES   REMARKS
Terre Haute    CLOUDY    57  51  80 E8        29.68F
Evansville     CLOUDY    67  57  70 S10       29.68F
Indianapolis   CLOUDY    55  48  77 E10       29.75F
Lafayette      TSTM      45  43  93 E17       29.73F FOG
Madison        LGT RAIN  37  35  92 E16       29.84F WCI  28
Milwaukee      LGT RAIN  38  35  89 NE14      29.87F FOG     WCI  30
$$





USA.gov is the U.S. government's official web portal to all federal, state and local government web resources and services.